Regional Weather Roundup
Issued by NWS San Diego, CA

Home | Current Version | Previous Version | Text Only | Print | Product List | Glossary On
Versions: 1 2 3 4 5 6 7 8 9 10 11 12 13 14 15 16 17 18 19 20 21 22 23 24 25 26 27 28 29 30 31 32 33 34 35 36 37 38 39 40 41 42 43 44 45 46 47 48 49 50
000
ASUS46 KSGX 190110
RWRSGX

SAN DIEGO HOURLY WEATHER ROUNDUP
NATIONAL WEATHER SERVICE SAN DIEGO CA
500 PM PST THU DEC 18 2014

NOTE: "FAIR" INDICATES FEW OR NO CLOUDS BELOW 12,000 FEET WITH NO
SIGNIFICANT WEATHER AND/OR OBSTRUCTIONS TO VISIBILITY.

CAZ042-043-060-061-PZZ750-775-190200-

GREATER SAN DIEGO AREA

CITY           SKY/WX    TMP DP  RH WIND       PRES   REMARKS
LINDBERGH FLD  MOCLDY    63  50  62 W5        30.18R
POINT LOMA       N/A     58  48  70 W8          N/A
NATIONAL CITY    N/A     62  53  72 W1        30.18R
CHULA VISTA      N/A     61  54  76 W6        30.10
IMPERIAL BEACH MOCLDY    61  51  70 W6        30.17R
BROWN FIELD    CLEAR     58  49  72 W5        30.16R
MIRAMAR MCAS   MOCLDY    60  50  69 W6        30.16R
MONTGOMERY FLD MOCLDY    60  51  72 NW7       30.16R

$$

NORTH SAN DIEGO COUNTY

CITY           SKY/WX    TMP DP  RH WIND       PRES   REMARKS
CAMP PENDLETON PTCLDY    59  49  69 CALM      30.16R
OCEANSIDE AP   MOCLDY    60  50  69 W3        30.15R
OCEANSIDE HBR    N/A     61  54  77 SW1       30.19R
VISTA            N/A     59  51  76 CALM      30.15R
CARLSBAD       CLOUDY    60  49  66 CALM      30.16R
DEL MAR          N/A     60  53  76 CALM      30.19R
FALLBROOK        N/A     58  55  89 CALM      30.17R
ESCONDIDO        N/A     59  50  72 SW6       30.19R
SAN MARCOS       N/A     59  50  72 CALM      30.15R
POWAY            N/A     58  51  75 CALM      30.19R

$$

EAST SAN DIEGO COUNTY

CITY           SKY/WX    TMP DP  RH WIND       PRES   REMARKS
RAMONA         MOCLDY    52  46  80 W5        30.16R
SANTEE LAKES     N/A     61  51  69 W3        30.18R
LA MESA          N/A     60  52  75 CALM      30.11R
JAMUL            N/A     57  50  77 CALM      30.17R
DESCANSO N       N/A     47  44  87 CALM      30.10R
MT. LAGUNA OBS   N/A     35  33  93 NW3       29.72R
CAMPO            N/A     50  43  77 W5        30.12R

$$

ORANGE COUNTY AND THE LOS ANGELES BASIN

CITY           SKY/WX    TMP DP  RH WIND       PRES   REMARKS
JOHN WAYNE AP  CLOUDY    62  49  62 SW5       30.16R
LAGUNA BEACH     N/A     60  53  77 CALM      30.12S
LAKE FOREST FR   N/A     57  46  68 CALM      30.08R
SANTA ANA        N/A     62  52  71 CALM      30.12R
HUNTINGTON BCH   N/A     60  53  78 CALM      30.18R
LOS ALAMITOS   MOCLDY    59  52  77 S6        30.17R
FULLERTON      MOCLDY    61  49  64 S6        30.15R
LONG BEACH     CLOUDY    60  51  72 S5        30.16R
L.A. AP        PTCLDY    58  51  78 SW6       30.16R
L.A. DOWNTOWN  CLEAR     60  48  64 VRB3      30.15R

$$

THE INLAND EMPIRE

CITY           SKY/WX    TMP DP  RH WIND       PRES   REMARKS
CORONA         MOCLDY    58  45  62 CALM      30.16R
CHINO          MOCLDY    56  45  66 W5        30.17R
ONTARIO        MOCLDY    58  45  62 SW6       30.15R
SAN BERNARDINO PTCLDY   N/A N/A N/A SW7       30.16R
RIVERSIDE AP   PTCLDY    58  45  62 W5        30.16R
RIV CYN CREST    N/A     59  52  78 CALM        N/A
MORENO VALLEY    N/A     56  48  74 CALM      29.34R
MARCH ARB      PTCLDY    53  47  78 W6        30.16R
HORSETHIEF CYN   N/A     55  42  62 SW5       30.17R
PERRIS           N/A     56  47  70 CALM      30.18R
MENIFEE          N/A     58  50  75 CALM      30.25R
HEMET EAST       N/A     54  39  57 CALM      30.19R
FRENCH VALLEY  FAIR      55  46  71 SW3       30.16R
TEMECULA         N/A     58  51  79 CALM      30.11R

$$

SAN BERNARDINO AND RIVERSIDE COUNTY MOUNTAINS

CITY           SKY/WX    TMP DP  RH WIND       PRES   REMARKS
BIG BEAR AP    PTCLDY    32  30  93 CALM      30.18R
PINE COVE        N/A     35  34  98 N1        30.27R

$$

SOUTHERN DESERT INCLUDING THE COACHELLA VALLEY

CITY           SKY/WX    TMP DP  RH WIND       PRES   REMARKS
PALM SPRINGS   CLEAR     63  38  39 W3        30.15R
THOUSAND PALMS   N/A     63  43  48 NW5       30.11R
PALM DESERT      N/A     65  38  37 CALM      27.65S
THERMAL        CLEAR     57  39  51 S3        30.12R
BLYTHE         PTCLDY    59  47  64 NE3       30.14R
IMPERIAL AP    CLEAR     63  41  44 E3        30.13R
EL CENTRO NAS  PTCLDY    60  44  55 NE3       30.13R
YUMA AZ        PTCLDY    61  43  51 N6        30.13R
MEXICALI       CLEAR     63  45  51 N2        30.14

$$

UPPER DESERT

CITY           SKY/WX    TMP DP  RH WIND       PRES   REMARKS
VICTORVILLE AP CLEAR     48  37  66 CALM      30.18R
HESPERIA         N/A     48  38  66 CALM      30.36R
APPLE VALLEY     N/A     50  35  55 CALM      30.20R
PALMDALE       PTCLDY    52  33  48 CALM      30.18R
LANCASTER      PTCLDY    51  34  52 NE3       30.18R
EDWARDS AFB    MOCLDY    51  38  59 CALM      30.16R
DAGGETT        CLEAR     52  38  58 E5        30.18R
29 PALMS N     PTCLDY    52  34  50 NW6       30.23R
NEEDLES        CLEAR     58  43  57 NW7       30.15R

$$

REGIONAL REPORTS

CITY           SKY/WX    TMP DP  RH WIND       PRES   REMARKS
SANTA BARBARA  MOCLDY    59  51  75 CALM      30.16R
SANDBERG       CLEAR     43  33  68 NE5       30.17R
MT. WILSON       N/A     39  39 100 MISG        N/A
LAS VEGAS NV   PTCLDY    53  38  56 S6        30.14R
PHOENIX AZ     PTCLDY    59  42  53 W8        30.10R
TIJUANA        PTCLDY    59  48  67 W7        30.18R
ENSENADA NW      N/A     60  32  34 N7        30.14R

$$

OFFSHORE ISLANDS

CITY           SKY/WX    TMP DP  RH WIND       PRES   REMARKS
CATALINA ARPT  CLOUDY    52  50  93 S3        30.17R
SAN CLEMENTE I MOCLDY    59  56  88 SW8       30.14R
SAN NICOLAS IS MOCLDY    62  56  80 N6        30.16R

$$

MARINE AND OFFSHORE BUOY REPORTS

STATION/POSITION SKY/WX   TEMP    WIND        PRES    SWELL
                          AIR SEA DIR/SP/G            HT/PER/DIR
                          (F)     (DEG/KT/KT) (MB)    (FT/S/D)
TANNER BANKS               62 64  330/ 14/ 16 1021.2R   7/290/14
S CLEMENTE BASIN           61 65  270/  4/  6 1021.3R   5/290/12
SAN NICOLAS IS.               62                N/A     7/300/14
SO. S. ROSA ISLA           60 62   60/  2/  2 1020.9R   8/14
W. S. BARBARA CH           58 61  140/  2/  4 1020.7F   8/270/14
S. MONICA BASIN            60 63  130/  6/  8 1021.5R   3/260/12
S PEDRO CHANNEL               64                N/A     2/260/12
DANA POINT                    64                N/A     2/280/11
CMP PENDLETON NS              64                N/A     2/230/14
OCEANSIDE OFFSHR              65                N/A     2/250/11
TORREY PINES OTR              65                N/A     3/260/13
LA JOLLA 1                 62 64  280/  3/  5 1021.5R
MISSION BAY BUOY              65                N/A     2/240/14
SAN DIEGO BAY                 65              1021.9R
POINT LOMA SOUTH              65                N/A     3/260/13

$$



USA.gov is the U.S. government's official web portal to all federal, state and local government web resources and services.